Location: Gebenbach
(49.5378°N, 11.8735°E)
Time: 12:12:09
(UTC+00:00)

CRYOSAT 2 - Pass Details

Date: 29 October 2020
Orbit: 714 x 724 km, 92.0° (Epoch: 25 November)

Event Time Altitude Azimuth Distance (km) Brightness Sun altitude
Rises 17:42:24 0° 7° (N) 3,133 7.6 -17.9°
Reaches altitude 10° 17:44:44 10° 11° (N) 2,208 6.8 -18.3°
Maximum altitude 17:49:34 61° 92° (E) 811 4.3 -19.1°
Drops below altitude 10° 17:54:22 10° 173° (S) 2,191 6.8 -19.8°
Sets 17:56:39 0° 177° (S) 3,106 7.6 -20.2°
